Change the Weather History Date:

Thursday, March 6, 2014

  Actual Average Record
Temperature  
Mean Temperature 52 °F -  
Max Temperature 53 °F 49 °F 73 °F (2001)
Min Temperature 50 °F 40 °F 19 °F (1999)
Degree Days  
Heating Degree Days 14    
Growing Degree Days 2 (Base 50)    
Moisture  
Dew Point 49 °F    
Average Humidity 94    
Maximum Humidity 100    
Minimum Humidity 82    
Precipitation  
Precipitation 0.32 in - - ()
Sea Level Pressure  
Sea Level Pressure 29.88 in    
Wind  
Wind Speed 26 mph (SSW)    
Max Wind Speed 39 mph    
Max Gust Speed 58 mph    
Visibility 4 miles    
Events Rain    
Averages and records for this station are not official NWS values.
T = Trace of Precipitation, MM = Missing Value Source: NWS Daily Summary

Daily Weather History Graph

Daily Weather History Graph

Search for Another Location

Airport or City:

Trip Planner

Search our weather history database for the weather conditions in past years. The results will help you decide how hot, cold, wet, or windy it might be!

Date:

Astronomy

Mar. 06, 2014 Rise Set
Actual Time 6:44 AM PST 6:10 PM PST
Civil Twilight 6:15 AM PST 6:39 PM PST
Nautical Twilight 5:41 AM PST 7:13 PM PST
Astronomical Twilight 5:08 AM PST 7:47 PM PST
Moon 9:43 AM PST (3/6) No Moon Set
Length of Visible Light 12h 24m
Length of Day
11h 26m
Waxing Crescent, 33% of the Moon is Illuminated
Mar 6
Waxing Crescent
Mar 8
First Quarter
Mar 16
Full
Mar 23
Last Quarter
Mar 30
New

Hourly Weather History & Observations

Time (PST) Temp. Dew Point Humidity Pressure Visibility Wind Dir Wind Speed Gust Speed Precip Events Conditions
12:15 AM 51.8 °F 48.2 °F 88% 29.65 in 5.0 mi South 32.2 mph 47.2 mph N/A   Overcast
12:35 AM 51.8 °F 46.4 °F 82% 29.70 in 7.0 mi SSW 28.8 mph 42.6 mph N/A   Overcast
12:55 AM 53.6 °F 50.0 °F 88% 29.67 in 5.0 mi SSW 28.8 mph 46.0 mph N/A   Overcast
1:15 AM 51.8 °F 50.0 °F 94% 29.65 in 5.0 mi South 32.2 mph 47.2 mph N/A   Overcast
1:35 AM 53.6 °F 50.0 °F 88% 29.70 in 5.0 mi South 38.0 mph 50.6 mph N/A   Overcast
1:55 AM 53.6 °F 50.0 °F 88% 29.68 in 5.0 mi South 32.2 mph 44.9 mph N/A   Overcast
2:15 AM 53.6 °F 50.0 °F 88% 29.68 in 5.0 mi South 34.5 mph 46.0 mph N/A   Mostly Cloudy
2:35 AM 53.6 °F 48.2 °F 82% 29.67 in 5.0 mi South 28.8 mph 44.9 mph N/A   Haze
2:55 AM 53.6 °F 48.2 °F 82% 29.66 in 5.0 mi South 35.7 mph 52.9 mph N/A Rain Light Rain
3:15 AM 53.6 °F 50.0 °F 88% 29.67 in 5.0 mi South 35.7 mph 46.0 mph N/A Rain Rain
3:35 AM 53.6 °F 50.0 °F 88% 29.67 in 5.0 mi South 35.7 mph 44.9 mph N/A   Overcast
3:55 AM 53.6 °F 50.0 °F 88% 29.67 in 5.0 mi South 33.4 mph 47.2 mph N/A   Overcast
4:15 AM 53.6 °F 50.0 °F 88% 29.67 in 5.0 mi South 34.5 mph 44.9 mph N/A   Overcast
4:35 AM 51.8 °F 50.0 °F 94% 29.62 in 4.0 mi South 31.1 mph 42.6 mph 0.02 in Rain Light Rain
4:55 AM 51.8 °F 50.0 °F 94% 29.61 in 4.0 mi South 32.2 mph 46.0 mph 0.02 in Rain Rain
5:15 AM 51.8 °F 50.0 °F 94% 29.60 in 4.0 mi South 32.2 mph 42.6 mph N/A   Overcast
5:35 AM 51.8 °F 50.0 °F 94% 29.63 in 5.0 mi South 32.2 mph 48.3 mph N/A   Overcast
5:55 AM 51.8 °F 50.0 °F 94% 29.60 in 4.0 mi South 35.7 mph 48.3 mph N/A Rain Rain
6:15 AM 51.8 °F 50.0 °F 94% 29.59 in 4.0 mi South 35.7 mph 54.1 mph N/A Rain Light Rain
6:35 AM 51.8 °F 50.0 °F 94% 29.57 in 3.0 mi South 39.1 mph 55.2 mph 0.02 in Rain Rain
6:55 AM 51.8 °F 50.0 °F 94% 29.58 in 3.0 mi South 34.5 mph 51.8 mph 0.06 in Rain Rain
7:15 AM 51.8 °F 50.0 °F 94% 29.57 in 1.8 mi South 36.8 mph 57.5 mph 0.04 in Rain Rain
7:35 AM 50.0 °F 50.0 °F 100% 29.59 in 1.2 mi SSW 36.8 mph 52.9 mph 0.08 in Rain Rain
7:55 AM 50.0 °F 48.2 °F 94% 29.62 in 2.5 mi SW 24.2 mph 44.9 mph 0.08 in Rain Light Rain
8:15 AM 50.0 °F 48.2 °F 94% 29.66 in 4.0 mi SW 21.9 mph 29.9 mph N/A   Light Drizzle
8:35 AM 50.0 °F 48.2 °F 94% 29.69 in 4.0 mi SW 25.3 mph 32.2 mph N/A   Light Drizzle
8:55 AM 50.0 °F 48.2 °F 94% 29.72 in 3.0 mi SW 21.9 mph 34.5 mph N/A Rain Rain
9:15 AM 50.0 °F 48.2 °F 94% 29.75 in 2.5 mi SW 23.0 mph 33.4 mph 0.02 in Rain Light Rain
9:35 AM 50.0 °F 46.4 °F 87% 29.77 in 3.0 mi SW 21.9 mph 31.1 mph 0.03 in Rain Rain
9:55 AM 50.0 °F 46.4 °F 87% 29.79 in 3.0 mi SW 19.6 mph 29.9 mph 0.04 in   Drizzle
10:15 AM 50.0 °F 46.4 °F 87% 29.81 in 3.0 mi SW 18.4 mph 28.8 mph 0.01 in   Drizzle
10:35 AM 50.0 °F 48.2 °F 94% 29.83 in 3.0 mi SW 19.6 mph 26.5 mph 0.02 in Rain Light Rain
10:55 AM 50.0 °F 48.2 °F 94% 29.85 in 3.0 mi SW 17.3 mph - 0.02 in   Drizzle
11:15 AM 50.0 °F 50.0 °F 100% 29.86 in 3.0 mi SSW 15.0 mph - N/A Rain Light Rain
11:35 AM 50.0 °F 50.0 °F 100% 29.87 in 4.0 mi SSW 19.6 mph 24.2 mph 0.01 in   Overcast
11:55 AM 50.0 °F 48.2 °F 94% 29.87 in 4.0 mi SW 18.4 mph 23.0 mph 0.01 in   Overcast
12:15 PM 50.0 °F 50.0 °F 100% 29.90 in 4.0 mi SSW 17.3 mph 23.0 mph N/A   Overcast
12:35 PM 51.8 °F 50.0 °F 94% 29.93 in 3.0 mi SW 19.6 mph 26.5 mph N/A   Overcast
12:55 PM 51.8 °F 50.0 °F 94% 29.99 in 3.0 mi SSW 20.7 mph 26.5 mph N/A   Overcast
1:15 PM 51.8 °F 50.0 °F 94% 29.97 in 3.0 mi SSW 20.7 mph 26.5 mph N/A   Overcast
1:35 PM 51.8 °F 50.0 °F 94% 29.98 in 3.0 mi SSW 20.7 mph 26.5 mph N/A   Overcast
1:55 PM 51.8 °F 50.0 °F 94% 29.99 in 4.0 mi SSW 16.1 mph - N/A   Overcast
2:15 PM 51.8 °F 50.0 °F 94% 30.00 in 4.0 mi SSW 16.1 mph 23.0 mph N/A   Overcast
2:35 PM 51.8 °F 50.0 °F 94% 30.01 in 4.0 mi SW 17.3 mph 23.0 mph N/A   Overcast
2:55 PM 51.8 °F 48.2 °F 88% 30.02 in 4.0 mi SSW 17.3 mph 23.0 mph N/A   Overcast
3:20 PM 51.8 °F 50.0 °F 94% 30.03 in 4.0 mi SSW 20.7 mph 25.3 mph N/A   Overcast
3:35 PM 51.8 °F 50.0 °F 94% 30.04 in 3.0 mi SW 17.3 mph 25.3 mph N/A   Overcast
3:55 PM 51.8 °F 50.0 °F 94% 30.05 in 3.0 mi SSW 17.3 mph 21.9 mph N/A   Overcast
4:15 PM 51.8 °F 50.0 °F 94% 30.06 in 3.0 mi SW 17.3 mph 21.9 mph N/A   Overcast
4:35 PM 51.8 °F 50.0 °F 94% 30.06 in 3.0 mi SSW 17.3 mph 25.3 mph N/A   Overcast
4:55 PM 51.8 °F 50.0 °F 94% 30.07 in 3.0 mi SSW 17.3 mph 21.9 mph N/A   Overcast
5:15 PM 51.8 °F 50.0 °F 94% 30.08 in 3.0 mi SSW 17.3 mph 24.2 mph N/A   Overcast
5:35 PM 50.0 °F 50.0 °F 100% 30.08 in 1.5 mi SW 13.8 mph 23.0 mph N/A Rain Heavy Rain
5:55 PM 50.0 °F 50.0 °F 100% 30.07 in 2.5 mi SW 12.7 mph 17.3 mph N/A   Overcast
6:15 PM 50.0 °F 50.0 °F 100% 30.10 in 3.0 mi SW 15.0 mph - N/A   Overcast
6:35 PM 50.0 °F 50.0 °F 100% 30.10 in 4.0 mi SSW 17.3 mph - N/A   Overcast
6:55 PM 50.0 °F 50.0 °F 100% 30.10 in 4.0 mi SSW 15.0 mph - N/A   Overcast
7:15 PM 50.0 °F 50.0 °F 100% 30.10 in 4.0 mi SSW 16.1 mph 20.7 mph N/A   Overcast
7:35 PM 50.0 °F 50.0 °F 100% 30.09 in 4.0 mi SSW 15.0 mph - N/A   Overcast
7:55 PM 50.0 °F 50.0 °F 100% 30.11 in 3.0 mi SSW 12.7 mph - N/A Rain Rain
8:15 PM 50.0 °F 50.0 °F 100% 30.11 in 4.0 mi SSW 11.5 mph - N/A   Overcast
8:35 PM 50.0 °F 48.2 °F 94% 30.12 in 2.5 mi SW 11.5 mph - 0.04 in Rain Heavy Rain
8:55 PM 50.0 °F 48.2 °F 94% 30.12 in 3.0 mi WSW 8.1 mph - 0.06 in   Drizzle
9:15 PM 50.0 °F 50.0 °F 100% 30.14 in 3.0 mi SSW 12.7 mph - 0.02 in Rain Light Rain
9:35 PM 50.0 °F 50.0 °F 100% 30.14 in 2.5 mi SSW 11.5 mph 18.4 mph 0.03 in   Heavy Drizzle
9:55 PM 50.0 °F 50.0 °F 100% 30.15 in 3.0 mi SSW 12.7 mph - 0.03 in   Overcast
10:15 PM 50.0 °F 50.0 °F 100% 30.14 in 4.0 mi SSW 12.7 mph 16.1 mph N/A   Overcast
10:35 PM 50.0 °F 50.0 °F 100% 30.15 in 3.0 mi SSW 10.4 mph - N/A   Overcast
10:55 PM 50.0 °F 50.0 °F 100% 30.16 in 4.0 mi SSW 11.5 mph - N/A   Overcast
11:15 PM 50.0 °F 50.0 °F 100% 30.16 in 4.0 mi SSW 11.5 mph - N/A   Overcast
11:35 PM 50.0 °F 50.0 °F 100% 30.16 in 4.0 mi SSW 10.4 mph - N/A   Overcast
11:55 PM 50.0 °F 50.0 °F 100% 30.17 in 4.0 mi SSW 11.5 mph - N/A   Overcast